Location: S�deilles
(46.7500°N, 6.9329°E)
Time: 17:54:42
(UTC+00:00)

H-2A R/B - Pass Details

Date: 08 March 2021
Orbit: 732 x 837 km, 98.2° (Epoch: 19 April)

Event Time Altitude Azimuth Distance (km) Brightness Sun altitude
Rises 18:44:40 0° 184° (S) 3,373 5.3 -13.9°
Reaches altitude 10° 18:47:09 10° 191° (S) 2,445 4.6 -14.3°
Maximum altitude 18:52:18 43° 262° (W) 1,158 3.5 -15.2°
Drops below altitude 10° 18:57:29 10° 334° (NNW) 2,444 5.1 -16.0°
Sets 18:59:57 0° 341° (NNW) 3,371 5.8 -16.5°
